Time,TemperatureF,DewpointF,PressureIn,WindDirection,WindDirectionDegrees,WindSpeedMPH,WindSpeedGustMPH,Humidity,HourlyPrecipIn,Conditions,Clouds,dailyrainin,SoftwareType,DateUTC
2013-02-09 00:00:00,32.2,24.8,30.31,NNW,335,0.0,0.0,74,0.00,OVC,,0.14,WeatherDisplay:10.37,2013-02-09 05:00:00,
2013-02-09 00:05:00,32.2,24.8,30.33,West,267,0.0,0.0,74,0.00,RA,,0.00,WeatherDisplay:10.37,2013-02-09 05:05:00,
2013-02-09 00:10:00,31.8,24.5,30.32,NNE,19,0.0,0.0,74,0.00,RA,,0.00,WeatherDisplay:10.37,2013-02-09 05:10:00,
2013-02-09 00:15:00,31.8,24.5,30.32,NNE,19,0.0,0.0,74,0.00,SCT,,0.00,WeatherDisplay:10.37,2013-02-09 05:15:00,
2013-02-09 00:20:00,31.8,24.5,30.32,North,357,0.0,0.0,74,0.00,SCT,,0.00,WeatherDisplay:10.37,2013-02-09 05:20:00,
2013-02-09 00:25:00,31.8,24.8,30.32,NNW,335,1.0,1.1,75,0.00,SCT,,0.00,WeatherDisplay:10.37,2013-02-09 05:25:00,
2013-02-09 00:30:00,31.8,24.8,30.32,North,357,0.0,1.1,75,0.00,SCT,,0.00,WeatherDisplay:10.37,2013-02-09 05:30:00,
2013-02-09 00:35:00,31.8,24.8,30.32,NNW,335,0.0,0.0,75,0.00,SCT,,0.00,WeatherDisplay:10.37,2013-02-09 05:35:00,
2013-02-09 00:40:00,32.0,25.0,30.32,NNW,335,0.0,0.0,75,0.00,SCT,,0.00,WeatherDisplay:10.37,2013-02-09 05:40:00,
2013-02-09 00:45:00,31.8,24.8,30.32,ENE,65,0.0,0.0,75,0.00,SCT,,0.00,WeatherDisplay:10.37,2013-02-09 05:45:00,
2013-02-09 00:50:00,32.2,25.1,30.33,NNW,335,0.0,0.9,75,0.00,SCT,,0.00,WeatherDisplay:10.37,2013-02-09 05:50:00,
2013-02-09 00:55:00,32.2,24.8,30.33,North,357,2.7,3.6,74,0.00,SCT,,0.00,WeatherDisplay:10.37,2013-02-09 05:55:00,
2013-02-09 01:00:00,32.2,24.8,30.33,North,357,0.0,0.0,74,0.00,SCT,,0.00,WeatherDisplay:10.37,2013-02-09 06:00:00,
2013-02-09 01:05:00,32.2,24.8,30.33,North,357,2.2,2.3,74,0.00,SCT,,0.00,WeatherDisplay:10.37,2013-02-09 06:05:00,
2013-02-09 01:10:00,32.2,24.8,30.33,NNW,335,0.4,4.0,74,0.00,OVC,,0.00,WeatherDisplay:10.37,2013-02-09 06:10:00,
2013-02-09 01:15:00,32.4,25.0,30.33,NNE,19,1.1,1.1,74,0.00,OVC,,0.00,WeatherDisplay:10.37,2013-02-09 06:15:00,
2013-02-09 01:20:00,32.4,25.0,30.33,SE,132,0.0,0.0,74,0.00,OVC,,0.00,WeatherDisplay:10.37,2013-02-09 06:20:00,
2013-02-09 01:25:00,32.4,25.0,30.33,North,357,3.0,3.5,74,0.00,OVC,,0.00,WeatherDisplay:10.37,2013-02-09 06:25:00,
2013-02-09 01:30:00,32.4,25.0,30.33,NNE,19,0.0,0.0,74,0.00,OVC,,0.00,WeatherDisplay:10.37,2013-02-09 06:30:00,
2013-02-09 01:35:00,32.4,25.0,30.33,NNW,335,0.0,0.0,74,0.00,OVC,,0.00,WeatherDisplay:10.37,2013-02-09 06:35:00,
2013-02-09 01:40:00,32.4,25.0,30.33,NNW,335,3.6,3.6,74,0.00,OVC,,0.00,WeatherDisplay:10.37,2013-02-09 06:40:00,
2013-02-09 01:45:00,32.4,25.0,30.33,NNW,335,2.7,2.7,74,0.00,OVC,,0.00,WeatherDisplay:10.37,2013-02-09 06:45:00,
2013-02-09 01:50:00,32.4,25.0,30.33,NE,42,0.0,0.0,74,0.00,OVC,,0.00,WeatherDisplay:10.37,2013-02-09 06:50:00,
2013-02-09 01:55:00,32.4,25.0,30.33,NW,312,3.4,3.8,74,0.00,OVC,,0.00,WeatherDisplay:10.37,2013-02-09 06:55:00,
2013-02-09 02:00:00,32.4,25.0,30.33,NE,42,1.6,1.6,74,0.00,OVC,,0.00,WeatherDisplay:10.37,2013-02-09 07:00:00,
2013-02-09 02:05:00,32.4,25.0,30.33,North,357,1.3,1.3,74,0.00,OVC,,0.00,WeatherDisplay:10.37,2013-02-09 07:05:00,
2013-02-09 02:10:00,32.4,25.0,30.32,NE,42,0.3,1.1,74,0.00,OVC,,0.00,WeatherDisplay:10.37,2013-02-09 07:10:00,
2013-02-09 02:15:00,32.4,25.0,30.33,NE,42,0.0,0.0,74,0.00,OVC,,0.00,WeatherDisplay:10.37,2013-02-09 07:15:00,
2013-02-09 02:20:00,32.4,25.0,30.32,ENE,65,0.0,0.0,74,0.00,OVC,,0.00,WeatherDisplay:10.37,2013-02-09 07:20:00,
2013-02-09 02:25:00,32.4,25.0,30.33,East,87,0.0,0.0,74,0.00,OVC,,0.00,WeatherDisplay:10.37,2013-02-09 07:25:00,
2013-02-09 02:30:00,32.4,25.0,30.33,ENE,65,0.0,0.0,74,0.00,OVC,,0.00,WeatherDisplay:10.37,2013-02-09 07:30:00,
2013-02-09 02:35:00,32.4,25.0,30.33,ESE,109,0.0,0.0,74,0.00,OVC,,0.00,WeatherDisplay:10.37,2013-02-09 07:35:00,
2013-02-09 02:40:00,32.4,25.0,30.33,ENE,65,0.0,0.0,74,0.00,OVC,,0.00,WeatherDisplay:10.37,2013-02-09 07:40:00,
2013-02-09 02:45:00,32.4,25.0,30.33,NE,42,0.0,0.0,74,0.00,OVC,,0.00,WeatherDisplay:10.37,2013-02-09 07:45:00,
2013-02-09 02:50:00,32.4,25.0,30.33,North,357,0.0,2.9,74,0.00,OVC,,0.00,WeatherDisplay:10.37,2013-02-09 07:50:00,
2013-02-09 02:55:00,32.2,24.8,30.33,NNE,19,2.8,3.5,74,0.00,OVC,,0.00,WeatherDisplay:10.37,2013-02-09 07:55:00,
2013-02-09 03:00:00,32.2,24.5,30.33,ENE,65,0.0,1.1,73,0.00,OVC,,0.00,WeatherDisplay:10.37,2013-02-09 08:00:00,
2013-02-09 03:05:00,32.2,24.5,30.32,North,357,1.0,2.9,73,0.00,OVC,,0.00,WeatherDisplay:10.37,2013-02-09 08:05:00,
2013-02-09 03:10:00,32.2,24.5,30.33,ENE,65,1.3,3.5,73,0.00,OVC,,0.00,WeatherDisplay:10.37,2013-02-09 08:10:00,
2013-02-09 03:15:00,32.2,24.2,30.32,NE,42,1.6,1.6,72,0.00,OVC,,0.00,WeatherDisplay:10.37,2013-02-09 08:15:00,
2013-02-09 03:20:00,32.2,24.2,30.33,NNE,19,2.5,2.5,72,0.00,OVC,,0.00,WeatherDisplay:10.37,2013-02-09 08:20:00,
2013-02-09 03:25:00,32.2,24.5,30.33,NE,42,0.0,0.0,73,0.00,OVC,,0.00,WeatherDisplay:10.37,2013-02-09 08:25:00,
2013-02-09 03:30:00,32.2,24.2,30.33,ENE,65,2.9,3.5,72,0.00,OVC,,0.00,WeatherDisplay:10.37,2013-02-09 08:30:00,
2013-02-09 03:35:00,32.2,24.2,30.32,NE,42,1.3,1.3,72,0.00,OVC,,0.00,WeatherDisplay:10.37,2013-02-09 08:35:00,
2013-02-09 03:40:00,32.2,24.2,30.33,ENE,65,0.4,1.1,72,0.00,OVC,,0.00,WeatherDisplay:10.37,2013-02-09 08:40:00,
2013-02-09 03:45:00,32.2,24.2,30.33,ENE,65,0.0,0.0,72,0.00,OVC,,0.00,WeatherDisplay:10.37,2013-02-09 08:45:00,
2013-02-09 03:50:00,32.2,24.2,30.33,North,357,2.9,3.5,72,0.00,OVC,,0.00,WeatherDisplay:10.37,2013-02-09 08:50:00,
2013-02-09 03:55:00,32.2,24.2,30.34,ESE,109,0.0,0.0,72,0.00,OVC,,0.00,WeatherDisplay:10.37,2013-02-09 08:55:00,
2013-02-09 04:00:00,32.2,24.2,30.33,ESE,109,3.8,3.8,72,0.00,OVC,,0.00,WeatherDisplay:10.37,2013-02-09 09:00:00,
2013-02-09 04:05:00,32.2,24.2,30.33,East,87,2.2,2.5,72,0.00,OVC,,0.00,WeatherDisplay:10.37,2013-02-09 09:05:00,
2013-02-09 04:10:00,32.2,24.2,30.33,NE,42,1.3,1.3,72,0.00,OVC,,0.00,WeatherDisplay:10.37,2013-02-09 09:10:00,
2013-02-09 04:15:00,32.2,24.2,30.33,ESE,109,2.2,2.3,72,0.00,OVC,,0.00,WeatherDisplay:10.37,2013-02-09 09:15:00,
2013-02-09 04:20:00,32.2,24.2,30.32,NE,42,2.2,2.3,72,0.00,OVC,,0.00,WeatherDisplay:10.37,2013-02-09 09:20:00,
2013-02-09 04:25:00,32.2,24.2,30.33,NE,42,4.0,4.0,72,0.00,OVC,,0.00,WeatherDisplay:10.37,2013-02-09 09:25:00,
2013-02-09 04:30:00,32.2,24.2,30.32,North,357,1.1,2.3,72,0.00,OVC,,0.00,WeatherDisplay:10.37,2013-02-09 09:30:00,
2013-02-09 04:35:00,31.8,23.8,30.33,East,87,3.6,3.6,72,0.00,OVC,,0.00,WeatherDisplay:10.37,2013-02-09 09:35:00,
2013-02-09 04:40:00,31.8,23.8,30.33,ENE,65,3.4,3.5,72,0.00,OVC,,0.00,WeatherDisplay:10.37,2013-02-09 09:40:00,
2013-02-09 04:45:00,31.8,24.1,30.32,SSE,155,2.2,2.3,73,0.00,OVC,,0.00,WeatherDisplay:10.37,2013-02-09 09:45:00,
2013-02-09 04:50:00,31.8,24.1,30.32,SSE,155,2.2,2.3,73,0.00,OVC,,0.00,WeatherDisplay:10.37,2013-02-09 09:50:00,
2013-02-09 04:55:00,31.8,24.1,30.32,SSE,155,2.2,2.3,73,0.00,OVC,,0.00,WeatherDisplay:10.37,2013-02-09 09:55:00,
2013-02-09 05:00:00,31.8,24.1,30.32,ENE,65,2.2,3.5,73,0.00,OVC,,0.00,WeatherDisplay:10.37,2013-02-09 10:00:00,
2013-02-09 05:05:00,31.8,24.1,30.32,ENE,65,3.1,3.1,73,0.00,OVC,,0.00,WeatherDisplay:10.37,2013-02-09 10:05:00,
2013-02-09 05:10:00,31.8,24.1,30.32,East,87,1.8,1.8,73,0.00,OVC,,0.00,WeatherDisplay:10.37,2013-02-09 10:10:00,
2013-02-09 05:15:00,31.8,24.1,30.32,East,87,1.8,0.0,73,0.00,OVC,,0.00,WeatherDisplay:10.37,2013-02-09 10:15:00,
2013-02-09 05:20:00,31.8,24.1,30.32,East,87,1.8,0.0,73,0.00,OVC,,0.00,WeatherDisplay:10.37,2013-02-09 10:20:00,
2013-02-09 05:25:00,31.6,24.0,30.33,East,87,0.3,4.6,73,0.00,OVC,,0.00,WeatherDisplay:10.37,2013-02-09 10:25:00,
2013-02-09 05:30:00,31.6,24.0,30.33,East,87,0.3,4.6,73,0.00,OVC,,0.00,WeatherDisplay:10.37,2013-02-09 10:30:00,
2013-02-09 05:35:00,31.6,24.0,30.33,East,87,0.3,4.6,73,0.00,OVC,,0.00,WeatherDisplay:10.37,2013-02-09 10:35:00,
2013-02-09 05:40:00,31.6,24.3,30.33,East,87,0.3,4.6,74,0.00,OVC,,0.00,WeatherDisplay:10.37,2013-02-09 10:40:00,
2013-02-09 05:45:00,31.6,24.0,30.33,NE,42,4.5,4.5,73,0.00,OVC,,0.00,WeatherDisplay:10.37,2013-02-09 10:45:00,
2013-02-09 05:50:00,31.6,24.0,30.33,NE,42,4.5,4.5,73,0.00,OVC,,0.00,WeatherDisplay:10.37,2013-02-09 10:50:00,
2013-02-09 05:55:00,31.6,24.0,30.33,ESE,109,1.6,1.6,73,0.00,OVC,,0.00,WeatherDisplay:10.37,2013-02-09 10:55:00,
2013-02-09 06:00:00,31.5,23.8,30.34,NE,42,1.5,3.5,73,0.00,OVC,,0.00,WeatherDisplay:10.37,2013-02-09 11:00:00,
2013-02-09 06:05:00,31.5,23.8,30.34,NE,42,2.9,0.0,73,0.00,OVC,,0.00,WeatherDisplay:10.37,2013-02-09 11:05:00,
2013-02-09 06:10:00,31.5,23.8,30.34,NE,42,2.9,0.0,73,0.00,OVC,,0.00,WeatherDisplay:10.37,2013-02-09 11:10:00,
2013-02-09 06:15:00,31.5,23.8,30.34,ENE,65,0.0,3.5,73,0.00,OVC,,0.00,WeatherDisplay:10.37,2013-02-09 11:15:00,
2013-02-09 06:20:00,31.5,23.8,30.34,ENE,65,0.0,3.5,73,0.00,OVC,,0.00,WeatherDisplay:10.37,2013-02-09 11:20:00,
2013-02-09 06:25:00,31.5,23.8,30.34,ENE,65,0.0,3.5,73,0.00,OVC,,0.00,WeatherDisplay:10.37,2013-02-09 11:25:00,
2013-02-09 06:30:00,30.6,22.9,30.34,NE,42,2.8,3.5,73,0.00,OVC,,0.00,WeatherDisplay:10.37,2013-02-09 11:30:00,
2013-02-09 06:35:00,30.6,22.9,30.34,North,357,0.0,0.0,73,0.00,OVC,,0.00,WeatherDisplay:10.37,2013-02-09 11:35:00,
2013-02-09 06:40:00,30.6,22.9,30.34,North,357,0.0,0.0,73,0.00,OVC,,0.00,WeatherDisplay:10.37,2013-02-09 11:40:00,
2013-02-09 06:45:00,30.6,22.9,30.34,North,357,0.0,0.0,73,0.00,OVC,,0.00,WeatherDisplay:10.37,2013-02-09 11:45:00,
2013-02-09 06:50:00,29.3,22.0,30.34,NE,42,0.0,0.0,74,0.00,OVC,,0.00,WeatherDisplay:10.37,2013-02-09 11:50:00,
2013-02-09 06:55:00,29.1,21.9,30.35,NE,42,0.3,1.1,74,0.00,OVC,,0.00,WeatherDisplay:10.37,2013-02-09 11:55:00,
2013-02-09 07:00:00,28.9,22.0,30.35,NE,42,0.0,0.0,75,0.00,OVC,,0.00,WeatherDisplay:10.37,2013-02-09 12:00:00,
2013-02-09 07:05:00,28.9,22.0,30.34,East,87,0.0,0.0,75,0.00,OVC,,0.00,WeatherDisplay:10.37,2013-02-09 12:05:00,
2013-02-09 07:10:00,28.9,22.0,30.34,NE,42,0.0,0.0,75,0.00,FEW,,0.00,WeatherDisplay:10.37,2013-02-09 12:10:00,
2013-02-09 07:15:00,28.2,21.6,30.35,NE,42,0.0,0.0,76,0.00,FEW,,0.00,WeatherDisplay:10.37,2013-02-09 12:15:00,
2013-02-09 07:20:00,28.2,21.6,30.35,NE,42,0.0,0.0,76,0.00,FEW,,0.00,WeatherDisplay:10.37,2013-02-09 12:20:00,
2013-02-09 07:25:00,28.2,21.6,30.35,NNE,19,2.5,3.5,76,0.00,FEW,,0.00,WeatherDisplay:10.37,2013-02-09 12:25:00,
2013-02-09 07:30:00,28.2,21.6,30.35,NE,42,0.0,0.0,76,0.00,FEW,,0.00,WeatherDisplay:10.37,2013-02-09 12:30:00,
2013-02-09 07:35:00,27.7,21.4,30.35,NE,42,0.0,2.3,77,0.00,FEW,,0.00,WeatherDisplay:10.37,2013-02-09 12:35:00,
2013-02-09 07:40:00,27.7,21.4,30.35,ENE,65,0.0,0.0,77,0.00,FEW,,0.00,WeatherDisplay:10.37,2013-02-09 12:40:00,
2013-02-09 07:45:00,27.7,21.1,30.36,NNE,19,0.7,1.1,76,0.00,FEW,,0.00,WeatherDisplay:10.37,2013-02-09 12:45:00,
2013-02-09 07:50:00,27.3,21.1,30.36,NE,42,0.0,0.0,77,0.00,FEW,,0.00,WeatherDisplay:10.37,2013-02-09 12:50:00,
2013-02-09 07:55:00,27.3,21.1,30.36,ENE,65,0.0,0.0,77,0.00,FEW,,0.00,WeatherDisplay:10.37,2013-02-09 12:55:00,
2013-02-09 08:00:00,27.3,21.1,30.36,NE,42,0.0,0.0,77,0.00,FEW,,0.00,WeatherDisplay:10.37,2013-02-09 13:00:00,
2013-02-09 08:05:00,27.1,20.9,30.36,NNE,19,0.0,0.0,77,0.00,FEW,,0.00,WeatherDisplay:10.37,2013-02-09 13:05:00,
2013-02-09 08:10:00,27.0,20.7,30.36,NE,42,0.0,0.0,77,0.00,FEW,,0.00,WeatherDisplay:10.37,2013-02-09 13:10:00,
2013-02-09 08:15:00,27.0,21.0,30.36,NE,42,0.0,0.0,78,0.00,FEW,,0.00,WeatherDisplay:10.37,2013-02-09 13:15:00,
2013-02-09 08:20:00,27.1,21.2,30.36,NNE,19,1.3,1.3,78,0.00,FEW,,0.00,WeatherDisplay:10.37,2013-02-09 13:20:00,
2013-02-09 08:25:00,27.1,21.2,30.36,North,357,0.0,0.0,78,0.00,FEW,,0.00,WeatherDisplay:10.37,2013-02-09 13:25:00,
2013-02-09 08:30:00,27.1,21.2,30.37,NNE,19,1.3,2.3,78,0.00,FEW,,0.00,WeatherDisplay:10.37,2013-02-09 13:30:00,
2013-02-09 08:35:00,28.0,22.1,30.37,NE,42,2.0,2.7,78,0.00,FEW,,0.00,WeatherDisplay:10.37,2013-02-09 13:35:00,
2013-02-09 08:40:00,28.0,22.1,30.37,NE,42,3.6,4.9,78,0.00,FEW,,0.00,WeatherDisplay:10.37,2013-02-09 13:40:00,
2013-02-09 08:45:00,28.6,22.6,30.36,ENE,65,0.1,0.0,78,0.00,FEW,,0.00,WeatherDisplay:10.37,2013-02-09 13:45:00,
2013-02-09 08:50:00,28.6,22.3,30.36,NNE,19,0.0,0.0,77,0.00,FEW,,0.00,WeatherDisplay:10.37,2013-02-09 13:50:00,
2013-02-09 08:55:00,28.9,22.6,30.36,NNE,19,1.9,2.3,77,0.00,FEW,,0.00,WeatherDisplay:10.37,2013-02-09 13:55:00,
2013-02-09 09:00:00,28.9,22.6,30.36,ENE,65,1.3,1.3,77,0.00,FEW,,0.00,WeatherDisplay:10.37,2013-02-09 14:00:00,
2013-02-09 09:05:00,30.0,23.7,30.37,ENE,65,3.6,3.6,77,0.00,FEW,,0.00,WeatherDisplay:10.37,2013-02-09 14:05:00,
2013-02-09 09:10:00,30.2,23.5,30.36,SE,132,1.2,1.2,76,0.00,CLR,,0.00,WeatherDisplay:10.37,2013-02-09 14:10:00,
2013-02-09 09:15:00,30.2,23.9,30.37,NE,42,0.0,0.0,77,0.00,CLR,,0.00,WeatherDisplay:10.37,2013-02-09 14:15:00,
2013-02-09 09:20:00,30.2,23.5,30.36,ENE,65,0.0,3.4,76,0.00,CLR,,0.00,WeatherDisplay:10.37,2013-02-09 14:20:00,
2013-02-09 09:25:00,31.6,24.6,30.36,East,87,1.1,2.3,75,0.00,CLR,,0.00,WeatherDisplay:10.37,2013-02-09 14:25:00,
2013-02-09 09:30:00,31.6,24.6,30.36,East,87,2.2,4.6,75,0.00,CLR,,0.00,WeatherDisplay:10.37,2013-02-09 14:30:00,
2013-02-09 09:35:00,32.7,25.3,30.36,East,87,2.2,4.6,74,0.00,CLR,,0.00,WeatherDisplay:10.37,2013-02-09 14:35:00,
2013-02-09 09:40:00,33.6,26.2,30.36,East,87,2.2,4.6,74,0.00,CLR,,0.00,WeatherDisplay:10.37,2013-02-09 14:40:00,
2013-02-09 09:45:00,34.7,26.6,30.35,NNE,19,2.1,0.0,72,0.00,CLR,,0.00,WeatherDisplay:10.37,2013-02-09 14:45:00,
2013-02-09 09:50:00,34.7,26.6,30.35,NNE,19,2.1,0.0,72,0.00,CLR,,0.00,WeatherDisplay:10.37,2013-02-09 14:50:00,
2013-02-09 09:55:00,35.8,27.6,30.34,ESE,109,0.8,1.1,72,0.00,CLR,,0.00,WeatherDisplay:10.37,2013-02-09 14:55:00,
2013-02-09 10:00:00,36.0,27.1,30.34,ENE,65,0.0,6.9,70,0.00,CLR,,0.00,WeatherDisplay:10.37,2013-02-09 15:00:00,
2013-02-09 10:05:00,36.0,27.1,30.34,ESE,109,0.0,0.0,70,0.00,CLR,,0.00,WeatherDisplay:10.37,2013-02-09 15:05:00,
2013-02-09 10:10:00,37.8,28.9,30.34,SE,132,3.6,3.6,70,0.00,CLR,,0.00,WeatherDisplay:10.37,2013-02-09 15:10:00,
2013-02-09 10:15:00,37.9,28.7,30.35,ESE,109,5.9,6.9,69,0.00,CLR,,0.00,WeatherDisplay:10.37,2013-02-09 15:15:00,
2013-02-09 10:20:00,39.0,29.0,30.35,East,87,5.8,5.8,67,0.00,CLR,,0.00,WeatherDisplay:10.37,2013-02-09 15:20:00,
2013-02-09 10:25:00,39.0,29.0,30.35,NW,312,0.0,0.0,67,0.00,CLR,,0.00,WeatherDisplay:10.37,2013-02-09 15:25:00,
2013-02-09 10:30:00,39.6,29.1,30.35,NE,42,1.8,2.3,66,0.00,CLR,,0.00,WeatherDisplay:10.37,2013-02-09 15:30:00,
2013-02-09 10:35:00,39.6,28.4,30.35,ESE,109,2.5,3.5,64,0.00,CLR,,0.00,WeatherDisplay:10.37,2013-02-09 15:35:00,
2013-02-09 10:40:00,39.4,28.2,30.35,East,87,2.2,4.6,64,0.00,CLR,,0.00,WeatherDisplay:10.37,2013-02-09 15:40:00,
2013-02-09 10:45:00,39.4,28.2,30.36,ESE,109,2.7,2.7,64,0.00,CLR,,0.00,WeatherDisplay:10.37,2013-02-09 15:45:00,
2013-02-09 10:50:00,40.3,28.7,30.35,ESE,109,5.1,5.8,63,0.00,CLR,,0.00,WeatherDisplay:10.37,2013-02-09 15:50:00,
2013-02-09 10:55:00,40.6,28.6,30.35,SE,132,4.2,4.6,62,0.00,CLR,,0.00,WeatherDisplay:10.37,2013-02-09 15:55:00,
2013-02-09 11:00:00,40.6,28.6,30.36,NE,42,3.4,5.8,62,0.00,CLR,,0.00,WeatherDisplay:10.37,2013-02-09 16:00:00,
2013-02-09 11:05:00,40.6,28.2,30.36,ENE,65,3.7,3.7,61,0.00,CLR,,0.00,WeatherDisplay:10.37,2013-02-09 16:05:00,
2013-02-09 11:10:00,41.0,28.6,30.35,ESE,109,3.4,4.6,61,0.00,CLR,,0.00,WeatherDisplay:10.37,2013-02-09 16:10:00,
2013-02-09 11:15:00,41.0,29.0,30.35,South,177,3.0,3.5,62,0.00,CLR,,0.00,WeatherDisplay:10.37,2013-02-09 16:15:00,
2013-02-09 11:20:00,41.4,28.9,30.36,ENE,65,0.7,1.1,61,0.00,CLR,,0.00,WeatherDisplay:10.37,2013-02-09 16:20:00,
2013-02-09 11:25:00,41.4,28.9,30.35,SE,132,3.1,3.5,61,0.00,CLR,,0.00,WeatherDisplay:10.37,2013-02-09 16:25:00,
2013-02-09 11:30:00,42.6,29.3,30.36,East,87,2.6,3.5,59,0.00,CLR,,0.00,WeatherDisplay:10.37,2013-02-09 16:30:00,
2013-02-09 11:35:00,43.5,30.1,30.36,NNE,19,4.2,4.6,59,0.00,CLR,,0.00,WeatherDisplay:10.37,2013-02-09 16:35:00,
2013-02-09 11:40:00,43.5,29.7,30.36,NE,42,0.0,0.0,58,0.00,CLR,,0.00,WeatherDisplay:10.37,2013-02-09 16:40:00,
2013-02-09 11:45:00,43.0,28.8,30.36,ESE,109,0.8,0.0,57,0.00,CLR,,0.00,WeatherDisplay:10.37,2013-02-09 16:45:00,
2013-02-09 11:50:00,43.2,29.8,30.36,ESE,109,2.8,2.8,59,0.00,CLR,,0.00,WeatherDisplay:10.37,2013-02-09 16:50:00,
2013-02-09 11:55:00,43.9,30.0,30.36,SE,132,1.7,3.5,58,0.00,CLR,,0.00,WeatherDisplay:10.37,2013-02-09 16:55:00,
2013-02-09 12:00:00,44.8,30.5,30.35,ENE,65,4.0,4.0,57,0.00,CLR,,0.00,WeatherDisplay:10.37,2013-02-09 17:00:00,
2013-02-09 12:05:00,45.0,30.6,30.35,SSE,155,7.4,7.4,57,0.00,CLR,,0.00,WeatherDisplay:10.37,2013-02-09 17:05:00,
2013-02-09 12:10:00,45.7,30.9,30.35,ESE,109,2.3,2.3,56,0.00,CLR,,0.00,WeatherDisplay:10.37,2013-02-09 17:10:00,
2013-02-09 12:15:00,45.7,30.4,30.34,East,87,0.0,0.0,55,0.00,CLR,,0.00,WeatherDisplay:10.37,2013-02-09 17:15:00,
2013-02-09 12:20:00,45.7,30.4,30.34,East,87,2.4,3.5,55,0.00,CLR,,0.00,WeatherDisplay:10.37,2013-02-09 17:20:00,
2013-02-09 12:25:00,46.2,31.4,30.34,ESE,109,3.1,3.5,56,0.00,CLR,,0.00,WeatherDisplay:10.37,2013-02-09 17:25:00,
2013-02-09 12:30:00,46.9,32.0,30.34,SSE,155,2.7,3.5,56,0.00,CLR,,0.00,WeatherDisplay:10.37,2013-02-09 17:30:00,
2013-02-09 12:35:00,47.5,31.2,30.34,ESE,109,1.8,7.4,53,0.00,CLR,,0.00,WeatherDisplay:10.37,2013-02-09 17:35:00,
2013-02-09 12:40:00,46.9,30.2,30.34,ESE,109,1.0,1.1,52,0.00,CLR,,0.00,WeatherDisplay:10.37,2013-02-09 17:40:00,
2013-02-09 12:45:00,46.9,30.2,30.33,SSE,155,0.0,0.0,52,0.00,CLR,,0.00,WeatherDisplay:10.37,2013-02-09 17:45:00,
2013-02-09 12:50:00,46.9,30.7,30.32,ENE,65,1.8,2.3,53,0.00,CLR,,0.00,WeatherDisplay:10.37,2013-02-09 17:50:00,
2013-02-09 12:55:00,46.9,30.7,30.32,ESE,109,2.7,3.5,53,0.00,CLR,,0.00,WeatherDisplay:10.37,2013-02-09 17:55:00,
2013-02-09 13:00:00,46.9,30.2,30.31,SSE,155,0.0,0.0,52,0.00,CLR,,0.00,WeatherDisplay:10.37,2013-02-09 18:00:00,
2013-02-09 13:05:00,47.1,29.9,30.31,SSW,199,2.6,3.5,51,0.00,CLR,,0.00,WeatherDisplay:10.37,2013-02-09 18:05:00,
2013-02-09 13:10:00,46.9,29.7,30.31,SE,132,1.7,2.3,51,0.00,CLR,,0.00,WeatherDisplay:10.37,2013-02-09 18:10:00,
2013-02-09 13:15:00,46.9,29.7,30.31,SSE,155,2.2,3.6,51,0.00,CLR,,0.00,WeatherDisplay:10.37,2013-02-09 18:15:00,
2013-02-09 13:20:00,46.9,30.2,30.31,NE,42,0.0,3.6,52,0.00,CLR,,0.00,WeatherDisplay:10.37,2013-02-09 18:20:00,
2013-02-09 13:25:00,46.9,29.2,30.30,East,87,4.5,4.6,50,0.00,CLR,,0.00,WeatherDisplay:10.37,2013-02-09 18:25:00,
2013-02-09 13:30:00,46.9,29.2,30.30,ENE,65,1.8,3.5,50,0.00,CLR,,0.00,WeatherDisplay:10.37,2013-02-09 18:30:00,
2013-02-09 13:35:00,46.9,29.2,30.30,ENE,65,3.6,5.8,50,0.00,CLR,,0.00,WeatherDisplay:10.37,2013-02-09 18:35:00,
2013-02-09 13:40:00,47.1,28.4,30.29,East,87,3.4,3.5,48,0.00,CLR,,0.00,WeatherDisplay:10.37,2013-02-09 18:40:00,
2013-02-09 13:45:00,47.1,28.9,30.29,NE,42,3.6,4.9,49,0.00,CLR,,0.00,WeatherDisplay:10.37,2013-02-09 18:45:00,
2013-02-09 13:50:00,46.9,28.8,30.29,South,177,0.0,0.0,49,0.00,CLR,,0.00,WeatherDisplay:10.37,2013-02-09 18:50:00,
2013-02-09 13:55:00,46.9,29.2,30.29,East,87,4.1,5.8,50,0.00,CLR,,0.00,WeatherDisplay:10.37,2013-02-09 18:55:00,
2013-02-09 14:00:00,47.5,28.7,30.29,SE,132,2.2,2.3,48,0.00,CLR,,0.00,WeatherDisplay:10.37,2013-02-09 19:00:00,
2013-02-09 14:05:00,47.7,28.9,30.29,North,357,1.1,2.3,48,0.00,CLR,,0.00,WeatherDisplay:10.37,2013-02-09 19:05:00,
2013-02-09 14:10:00,47.7,28.9,30.28,SW,222,3.6,3.6,48,0.00,CLR,,0.00,WeatherDisplay:10.37,2013-02-09 19:10:00,
2013-02-09 14:15:00,48.0,29.2,30.28,SE,132,2.7,2.7,48,0.00,CLR,,0.00,WeatherDisplay:10.37,2013-02-09 19:15:00,
2013-02-09 14:20:00,48.6,29.7,30.28,NE,42,3.6,5.1,48,0.00,CLR,,0.00,WeatherDisplay:10.37,2013-02-09 19:20:00,
2013-02-09 14:25:00,48.6,29.7,30.28,East,87,4.0,4.6,48,0.00,CLR,,0.00,WeatherDisplay:10.37,2013-02-09 19:25:00,
2013-02-09 14:30:00,48.7,29.9,30.27,ENE,65,1.8,5.1,48,0.00,CLR,,0.00,WeatherDisplay:10.37,2013-02-09 19:30:00,
2013-02-09 14:35:00,49.1,29.7,30.27,SSE,155,2.2,3.5,47,0.00,CLR,,0.00,WeatherDisplay:10.37,2013-02-09 19:35:00,
2013-02-09 14:40:00,49.3,29.9,30.26,East,87,3.1,3.5,47,0.00,CLR,,0.00,WeatherDisplay:10.37,2013-02-09 19:40:00,
2013-02-09 14:45:00,49.3,29.9,30.27,South,177,0.0,0.0,47,0.00,CLR,,0.00,WeatherDisplay:10.37,2013-02-09 19:45:00,
2013-02-09 14:50:00,48.9,29.0,30.26,SE,132,1.3,1.3,46,0.00,CLR,,0.00,WeatherDisplay:10.37,2013-02-09 19:50:00,
2013-02-09 14:55:00,49.1,29.2,30.26,East,87,3.6,3.6,46,0.00,CLR,,0.00,WeatherDisplay:10.37,2013-02-09 19:55:00,
2013-02-09 15:00:00,49.3,29.4,30.26,ESE,109,5.8,5.8,46,0.00,CLR,,0.00,WeatherDisplay:10.37,2013-02-09 20:00:00,
2013-02-09 15:05:00,49.6,29.7,30.26,ENE,65,2.4,2.4,46,0.00,CLR,,0.00,WeatherDisplay:10.37,2013-02-09 20:05:00,
2013-02-09 15:10:00,49.8,29.8,30.26,ESE,109,2.9,4.6,46,0.00,CLR,,0.00,WeatherDisplay:10.37,2013-02-09 20:10:00,
2013-02-09 15:15:00,50.4,29.8,30.26,East,87,1.8,2.3,45,0.00,CLR,,0.00,WeatherDisplay:10.37,2013-02-09 20:15:00,
2013-02-09 15:20:00,50.2,29.1,30.26,ESE,109,2.4,3.5,44,0.00,CLR,,0.00,WeatherDisplay:10.37,2013-02-09 20:20:00,
2013-02-09 15:25:00,50.2,28.5,30.25,ESE,109,4.2,4.6,43,0.00,CLR,,0.00,WeatherDisplay:10.37,2013-02-09 20:25:00,
2013-02-09 15:30:00,50.2,29.1,30.26,NNE,19,3.8,3.8,44,0.00,CLR,,0.00,WeatherDisplay:10.37,2013-02-09 20:30:00,
2013-02-09 15:35:00,50.4,29.2,30.25,NNE,19,2.6,2.7,44,0.00,CLR,,0.00,WeatherDisplay:10.37,2013-02-09 20:35:00,
2013-02-09 15:40:00,50.5,29.4,30.25,ESE,109,2.9,3.5,44,0.00,CLR,,0.00,WeatherDisplay:10.37,2013-02-09 20:40:00,
2013-02-09 15:45:00,50.7,29.6,30.25,SE,132,4.5,4.6,44,0.00,CLR,,0.00,WeatherDisplay:10.37,2013-02-09 20:45:00,
2013-02-09 15:50:00,50.9,29.7,30.25,ESE,109,1.1,2.3,44,0.00,CLR,,0.00,WeatherDisplay:10.37,2013-02-09 20:50:00,
2013-02-09 15:55:00,50.7,29.0,30.25,East,87,3.1,4.6,43,0.00,CLR,,0.00,WeatherDisplay:10.37,2013-02-09 20:55:00,
2013-02-09 16:00:00,50.4,28.7,30.25,East,87,5.1,5.1,43,0.00,CLR,,0.00,WeatherDisplay:10.37,2013-02-09 21:00:00,
2013-02-09 16:05:00,49.8,28.2,30.25,ESE,109,3.0,3.6,43,0.00,CLR,,0.00,WeatherDisplay:10.37,2013-02-09 21:05:00,
2013-02-09 16:10:00,49.6,28.0,30.25,East,87,3.8,3.8,43,0.00,CLR,,0.00,WeatherDisplay:10.37,2013-02-09 21:10:00,
2013-02-09 16:15:00,49.1,28.1,30.24,SSE,155,5.6,5.8,44,0.00,CLR,,0.00,WeatherDisplay:10.37,2013-02-09 21:15:00,
2013-02-09 16:20:00,48.9,27.9,30.24,North,357,0.6,3.5,44,0.00,CLR,,0.00,WeatherDisplay:10.37,2013-02-09 21:20:00,
2013-02-09 16:25:00,48.7,27.8,30.24,NNE,19,2.7,2.7,44,0.00,CLR,,0.00,WeatherDisplay:10.37,2013-02-09 21:25:00,
2013-02-09 16:30:00,48.6,28.2,30.24,East,87,1.6,2.9,45,0.00,CLR,,0.00,WeatherDisplay:10.37,2013-02-09 21:30:00,
2013-02-09 16:35:00,48.6,28.2,30.24,ENE,65,3.7,3.7,45,0.00,CLR,,0.00,WeatherDisplay:10.37,2013-02-09 21:35:00,
2013-02-09 16:40:00,48.6,28.7,30.23,ENE,65,6.4,6.9,46,0.00,CLR,,0.00,WeatherDisplay:10.37,2013-02-09 21:40:00,
2013-02-09 16:45:00,48.4,28.5,30.23,ESE,109,0.0,1.6,46,0.00,CLR,,0.00,WeatherDisplay:10.37,2013-02-09 21:45:00,
2013-02-09 16:50:00,48.4,28.0,30.24,ESE,109,0.8,2.3,45,0.00,CLR,,0.00,WeatherDisplay:10.37,2013-02-09 21:50:00,
2013-02-09 16:55:00,48.0,27.7,30.23,ENE,65,2.2,2.3,45,0.00,CLR,,0.00,WeatherDisplay:10.37,2013-02-09 21:55:00,
2013-02-09 17:00:00,47.5,27.2,30.23,East,87,1.1,2.3,45,0.00,CLR,,0.00,WeatherDisplay:10.37,2013-02-09 22:00:00,
2013-02-09 17:05:00,47.1,27.4,30.23,ESE,109,4.7,5.8,46,0.00,CLR,,0.00,WeatherDisplay:10.37,2013-02-09 22:05:00,
2013-02-09 17:10:00,46.8,27.0,30.23,East,87,2.9,4.6,46,0.00,CLR,,0.00,WeatherDisplay:10.37,2013-02-09 22:10:00,
2013-02-09 17:15:00,46.2,27.1,30.23,East,87,7.6,8.1,47,0.00,CLR,,0.00,WeatherDisplay:10.37,2013-02-09 22:15:00,
2013-02-09 17:20:00,46.0,26.9,30.23,ESE,109,0.8,1.3,47,0.00,CLR,,0.00,WeatherDisplay:10.37,2013-02-09 22:20:00,
2013-02-09 17:25:00,45.5,26.4,30.23,NE,42,2.4,3.5,47,0.00,CLR,,0.00,WeatherDisplay:10.37,2013-02-09 22:25:00,
2013-02-09 17:30:00,45.1,26.6,30.22,ENE,65,0.0,0.9,48,0.00,CLR,,0.00,WeatherDisplay:10.37,2013-02-09 22:30:00,
2013-02-09 17:35:00,45.0,26.4,30.22,North,357,1.4,4.6,48,0.00,CLR,,0.00,WeatherDisplay:10.37,2013-02-09 22:35:00,
2013-02-09 17:40:00,44.6,26.6,30.22,ESE,109,3.4,3.5,49,0.00,CLR,,0.00,WeatherDisplay:10.37,2013-02-09 22:40:00,
2013-02-09 17:45:00,44.4,26.4,30.22,SE,132,0.0,0.0,49,0.00,CLR,,0.00,WeatherDisplay:10.37,2013-02-09 22:45:00,
2013-02-09 17:50:00,44.1,26.6,30.22,East,87,1.0,1.3,50,0.00,CLR,,0.00,WeatherDisplay:10.37,2013-02-09 22:50:00,
2013-02-09 17:55:00,43.9,26.4,30.22,ENE,65,0.0,0.0,50,0.00,CLR,,0.00,WeatherDisplay:10.37,2013-02-09 22:55:00,
2013-02-09 18:00:00,43.5,26.6,30.23,ENE,65,1.1,1.1,51,0.00,CLR,,0.00,WeatherDisplay:10.37,2013-02-09 23:00:00,
2013-02-09 18:05:00,43.2,26.2,30.22,East,87,0.6,1.1,51,0.00,CLR,,0.00,WeatherDisplay:10.37,2013-02-09 23:05:00,
2013-02-09 18:10:00,43.0,26.1,30.22,NE,42,1.6,1.6,51,0.00,CLR,,0.00,WeatherDisplay:10.37,2013-02-09 23:10:00,
2013-02-09 18:15:00,42.6,26.2,30.21,ENE,65,0.2,1.6,52,0.00,CLR,,0.00,WeatherDisplay:10.37,2013-02-09 23:15:00,
2013-02-09 18:20:00,42.4,26.0,30.21,ESE,109,2.5,3.5,52,0.00,CLR,,0.00,WeatherDisplay:10.37,2013-02-09 23:20:00,
2013-02-09 18:25:00,41.9,26.0,30.21,NNE,19,0.0,0.0,53,0.00,CLR,,0.00,WeatherDisplay:10.37,2013-02-09 23:25:00,
2013-02-09 18:30:00,41.5,25.7,30.21,East,87,1.1,2.3,53,0.00,CLR,,0.00,WeatherDisplay:10.37,2013-02-09 23:30:00,
2013-02-09 18:35:00,41.2,25.8,30.21,ENE,65,0.7,2.3,54,0.00,CLR,,0.00,WeatherDisplay:10.37,2013-02-09 23:35:00,
2013-02-09 18:40:00,41.0,25.6,30.21,East,87,0.0,1.1,54,0.00,CLR,,0.00,WeatherDisplay:10.37,2013-02-09 23:40:00,
2013-02-09 18:45:00,40.6,25.3,30.21,ENE,65,0.0,0.0,54,0.00,CLR,,0.00,WeatherDisplay:10.37,2013-02-09 23:45:00,
2013-02-09 18:50:00,40.3,25.4,30.21,NE,42,0.0,0.0,55,0.00,CLR,,0.00,WeatherDisplay:10.37,2013-02-09 23:50:00,
2013-02-09 18:55:00,40.1,25.2,30.20,ESE,109,1.0,2.3,55,0.00,CLR,,0.00,WeatherDisplay:10.37,2013-02-09 23:55:00,
2013-02-09 19:00:00,39.9,25.0,30.20,SE,132,2.2,2.3,55,0.00,CLR,,0.00,WeatherDisplay:10.37,2013-02-10 00:00:00,
2013-02-09 19:05:00,39.9,25.0,30.21,East,87,1.3,3.5,55,0.00,CLR,,0.00,WeatherDisplay:10.37,2013-02-10 00:05:00,
2013-02-09 19:10:00,39.9,25.0,30.20,East,87,2.5,4.6,55,0.00,CLR,,0.00,WeatherDisplay:10.37,2013-02-10 00:10:00,
2013-02-09 19:15:00,39.7,25.3,30.20,ENE,65,2.3,3.6,56,0.00,CLR,,0.00,WeatherDisplay:10.37,2013-02-10 00:15:00,
2013-02-09 19:20:00,39.7,25.3,30.20,ENE,65,3.5,4.6,56,0.00,CLR,,0.00,WeatherDisplay:10.37,2013-02-10 00:20:00,
2013-02-09 19:25:00,39.7,25.7,30.20,SE,132,5.4,5.8,57,0.00,CLR,,0.00,WeatherDisplay:10.37,2013-02-10 00:25:00,
2013-02-09 19:30:00,39.7,25.3,30.19,ENE,65,0.0,1.1,56,0.00,CLR,,0.00,WeatherDisplay:10.37,2013-02-10 00:30:00,
2013-02-09 19:35:00,39.6,25.1,30.20,ESE,109,3.1,3.5,56,0.00,CLR,,0.00,WeatherDisplay:10.37,2013-02-10 00:35:00,
2013-02-09 19:40:00,39.4,25.4,30.20,East,87,2.8,3.5,57,0.00,CLR,,0.00,WeatherDisplay:10.37,2013-02-10 00:40:00,
2013-02-09 19:45:00,39.4,25.4,30.20,SE,132,0.0,2.2,57,0.00,CLR,,0.00,WeatherDisplay:10.37,2013-02-10 00:45:00,
2013-02-09 19:50:00,39.0,25.1,30.20,East,87,0.0,0.0,57,0.00,CLR,,0.00,WeatherDisplay:10.37,2013-02-10 00:50:00,
2013-02-09 19:55:00,38.8,24.9,30.20,SE,132,1.6,1.6,57,0.00,CLR,,0.00,WeatherDisplay:10.37,2013-02-10 00:55:00,
2013-02-09 20:00:00,38.8,24.9,30.20,NE,42,1.8,2.3,57,0.00,CLR,,0.00,WeatherDisplay:10.37,2013-02-10 01:00:00,
2013-02-09 20:05:00,38.8,24.9,30.20,East,87,3.6,3.6,57,0.00,CLR,,0.00,WeatherDisplay:10.37,2013-02-10 01:05:00,
2013-02-09 20:10:00,38.8,24.9,30.20,NE,42,2.4,2.5,57,0.00,FEW,,0.00,WeatherDisplay:10.37,2013-02-10 01:10:00,
2013-02-09 20:15:00,38.5,24.6,30.20,East,87,4.2,5.8,57,0.00,FEW,,0.00,WeatherDisplay:10.37,2013-02-10 01:15:00,
2013-02-09 20:20:00,38.5,24.6,30.20,East,87,1.6,2.3,57,0.00,FEW,,0.00,WeatherDisplay:10.37,2013-02-10 01:20:00,
2013-02-09 20:25:00,38.5,25.0,30.19,ENE,65,1.1,1.1,58,0.00,FEW,,0.00,WeatherDisplay:10.37,2013-02-10 01:25:00,
2013-02-09 20:30:00,38.3,24.8,30.19,NE,42,2.6,3.5,58,0.00,FEW,,0.00,WeatherDisplay:10.37,2013-02-10 01:30:00,
2013-02-09 20:35:00,38.1,24.6,30.19,East,87,1.4,2.3,58,0.00,FEW,,0.00,WeatherDisplay:10.37,2013-02-10 01:35:00,
2013-02-09 20:40:00,38.1,24.6,30.19,ENE,65,2.7,2.7,58,0.00,FEW,,0.00,WeatherDisplay:10.37,2013-02-10 01:40:00,
2013-02-09 20:45:00,37.9,24.5,30.19,East,87,3.9,4.6,58,0.00,FEW,,0.00,WeatherDisplay:10.37,2013-02-10 01:45:00,
2013-02-09 20:50:00,37.9,24.5,30.19,ENE,65,0.8,2.3,58,0.00,FEW,,0.00,WeatherDisplay:10.37,2013-02-10 01:50:00,
2013-02-09 20:55:00,37.9,24.9,30.19,ENE,65,1.3,1.3,59,0.00,FEW,,0.00,WeatherDisplay:10.37,2013-02-10 01:55:00,
2013-02-09 21:00:00,37.9,24.5,30.18,ESE,109,3.6,3.6,58,0.00,FEW,,0.00,WeatherDisplay:10.37,2013-02-10 02:00:00,
2013-02-09 21:05:00,37.9,24.9,30.18,ENE,65,2.0,2.3,59,0.00,FEW,,0.00,WeatherDisplay:10.37,2013-02-10 02:05:00,
2013-02-09 21:10:00,37.9,24.9,30.18,East,87,0.0,0.0,59,0.00,CLR,,0.00,WeatherDisplay:10.37,2013-02-10 02:10:00,
2013-02-09 21:15:00,38.1,25.0,30.19,ENE,65,4.5,5.1,59,0.00,CLR,,0.00,WeatherDisplay:10.37,2013-02-10 02:15:00,
2013-02-09 21:20:00,38.3,25.2,30.18,ENE,65,1.1,1.3,59,0.00,CLR,,0.00,WeatherDisplay:10.37,2013-02-10 02:20:00,
2013-02-09 21:25:00,38.5,25.4,30.18,ENE,65,1.6,1.6,59,0.00,CLR,,0.00,WeatherDisplay:10.37,2013-02-10 02:25:00,
2013-02-09 21:30:00,38.5,25.4,30.19,NE,42,0.9,1.1,59,0.00,CLR,,0.00,WeatherDisplay:10.37,2013-02-10 02:30:00,
2013-02-09 21:35:00,38.5,25.4,30.18,ESE,109,2.5,2.5,59,0.00,CLR,,0.00,WeatherDisplay:10.37,2013-02-10 02:35:00,
2013-02-09 21:40:00,38.7,25.6,30.18,East,87,0.0,3.5,59,0.00,CLR,,0.00,WeatherDisplay:10.37,2013-02-10 02:40:00,
2013-02-09 21:45:00,38.8,25.7,30.18,East,87,2.8,3.5,59,0.00,CLR,,0.00,WeatherDisplay:10.37,2013-02-10 02:45:00,
2013-02-09 21:50:00,38.8,25.7,30.18,ESE,109,0.7,3.5,59,0.00,CLR,,0.00,WeatherDisplay:10.37,2013-02-10 02:50:00,
2013-02-09 21:55:00,38.8,25.7,30.19,NNE,19,1.6,2.3,59,0.00,CLR,,0.00,WeatherDisplay:10.37,2013-02-10 02:55:00,
2013-02-09 22:00:00,39.0,25.9,30.18,ENE,65,1.8,2.3,59,0.00,CLR,,0.00,WeatherDisplay:10.37,2013-02-10 03:00:00,
2013-02-09 22:05:00,38.8,25.7,30.18,ESE,109,2.4,2.5,59,0.00,CLR,,0.00,WeatherDisplay:10.37,2013-02-10 03:05:00,
2013-02-09 22:10:00,38.8,25.7,30.19,ENE,65,0.0,2.3,59,0.00,OVC,,0.00,WeatherDisplay:10.37,2013-02-10 03:10:00,
2013-02-09 22:15:00,38.8,25.7,30.18,NE,42,2.6,2.6,59,0.00,OVC,,0.00,WeatherDisplay:10.37,2013-02-10 03:15:00,
2013-02-09 22:20:00,38.8,25.7,30.18,ESE,109,2.9,3.5,59,0.00,OVC,,0.00,WeatherDisplay:10.37,2013-02-10 03:20:00,
2013-02-09 22:25:00,38.8,25.7,30.18,ENE,65,2.7,2.7,59,0.00,OVC,,0.00,WeatherDisplay:10.37,2013-02-10 03:25:00,
2013-02-09 22:30:00,38.8,25.7,30.18,East,87,2.2,2.3,59,0.00,OVC,,0.00,WeatherDisplay:10.37,2013-02-10 03:30:00,
2013-02-09 22:35:00,38.8,25.7,30.17,East,87,3.6,3.6,59,0.00,OVC,,0.00,WeatherDisplay:10.37,2013-02-10 03:35:00,
2013-02-09 22:40:00,38.5,25.4,30.17,ENE,65,0.0,1.1,59,0.00,OVC,,0.00,WeatherDisplay:10.37,2013-02-10 03:40:00,
2013-02-09 22:45:00,38.5,25.4,30.17,NE,42,1.9,2.5,59,0.00,OVC,,0.00,WeatherDisplay:10.37,2013-02-10 03:45:00,
2013-02-09 22:50:00,38.3,25.2,30.17,East,87,0.6,1.1,59,0.00,OVC,,0.00,WeatherDisplay:10.37,2013-02-10 03:50:00,
2013-02-09 22:55:00,38.3,25.2,30.16,ENE,65,0.0,0.0,59,0.00,OVC,,0.00,WeatherDisplay:10.37,2013-02-10 03:55:00,
2013-02-09 23:00:00,37.9,24.9,30.16,ENE,65,1.4,2.9,59,0.00,OVC,,0.00,WeatherDisplay:10.37,2013-02-10 04:00:00,
2013-02-09 23:05:00,37.8,24.3,30.16,ENE,65,0.5,3.5,58,0.00,OVC,,0.00,WeatherDisplay:10.37,2013-02-10 04:05:00,
2013-02-09 23:10:00,37.6,24.5,30.16,ENE,65,2.0,2.3,59,0.00,OVC,,0.00,WeatherDisplay:10.37,2013-02-10 04:10:00,
2013-02-09 23:15:00,37.4,24.4,30.16,NE,42,2.2,2.3,59,0.00,OVC,,0.00,WeatherDisplay:10.37,2013-02-10 04:15:00,
2013-02-09 23:20:00,37.4,24.4,30.16,ENE,65,0.3,1.1,59,0.00,OVC,,0.00,WeatherDisplay:10.37,2013-02-10 04:20:00,
2013-02-09 23:25:00,37.2,24.2,30.16,ESE,109,2.9,3.5,59,0.00,OVC,,0.00,WeatherDisplay:10.37,2013-02-10 04:25:00,
2013-02-09 23:30:00,37.2,24.2,30.16,East,87,2.1,3.5,59,0.00,OVC,,0.00,WeatherDisplay:10.37,2013-02-10 04:30:00,
2013-02-09 23:35:00,37.2,24.2,30.15,NE,42,0.1,2.3,59,0.00,OVC,,0.00,WeatherDisplay:10.37,2013-02-10 04:35:00,
2013-02-09 23:40:00,37.2,24.6,30.15,ENE,65,0.0,2.3,60,0.00,OVC,,0.00,WeatherDisplay:10.37,2013-02-10 04:40:00,
2013-02-09 23:45:00,37.2,24.6,30.15,ENE,65,3.1,3.5,60,0.00,OVC,,0.00,WeatherDisplay:10.37,2013-02-10 04:45:00,
2013-02-09 23:50:00,37.2,24.6,30.15,NE,42,1.1,1.1,60,0.00,OVC,,0.00,WeatherDisplay:10.37,2013-02-10 04:50:00,
2013-02-09 23:55:00,37.2,24.6,30.15,NNE,19,2.0,2.3,60,0.00,OVC,,0.00,WeatherDisplay:10.37,2013-02-10 04:55:00,